Regional Weather Roundup
Issued by NWS Mobile, AL

Home | Current Version | Previous Version | Text Only | Print | Product List | Glossary On
Versions: 1 2 3 4 5 6 7 8 9 10 11 12 13 14 15 16 17 18 19 20 21 22 23 24 25 26 27 28 29 30 31 32 33 34 35 36 37 38 39 40 41 42 43 44 45 46 47 48 49 50
000
ASUS44 KMOB 200510
RWRMOB
REGIONAL WEATHER ROUNDUP
NATIONAL WEATHER SERVICE MOBILE AL
1100 PM CST FRI DEC 19 2014

NOTE: "FAIR" INDICATES FEW OR NO CLOUDS BELOW 12,000 FEET WITH NO
      SIGNIFICANT WEATHER AND/OR OBSTRUCTIONS TO VISIBILITY.

  * THESE STATIONS ARE PART OF THE UNIVERSITY OF SOUTH ALABAMA
    MESONET AND ARE NOT UNDER NWS OR FAA QUALITY CONTROL.

ALZ061>064-200600-
COASTAL ALABAMA

CITY           SKY/WX    TMP DP  RH WIND       PRES   REMARKS
MOBILE REG APT CLOUDY    45  45 100 NE12      30.11F
BROOKLEY FIELD LGT RAIN  50  47  89 NE14      30.12F
USA CAMPUS*      N/A     46  46 100 NE3       30.11F
DOG RIVER*     NOT AVBL


CITY           SKY/WX    TMP DP  RH WIND       PRES   REMARKS
MOUNT VERNON*    N/A     45  43  93 N6        30.14F
SARALAND*      NOT AVBL
BAY MINETTE*   NOT AVBL
LOXLEY*          N/A     46  46 100 NE8       30.11F
ROBERTSDALE*     N/A     46  46 100 N2        30.11S
FAIRHOPE*        N/A     46  46 100 NE12      30.10S
ELBERTA*         N/A     48  46  93 N5        30.10S
FOLEY*           N/A     46  46 100 N3        30.12F
GRAND BAY*       N/A     48  46  93 NE8       30.09F
DAUPHIN ISLND* NOT AVBL
BON SCOUR NWR* NOT AVBL
GULF SHORES    CLOUDY    48  47  94 NE8       30.10S

$$

ALZ051>060-200600-
INTERIOR SOUTHWEST AND SOUTH CENTRAL ALABAMA

CITY           SKY/WX    TMP DP  RH WIND       PRES   REMARKS
GREENVILLE     NOT AVBL
EVERGREEN      RAIN      47  45  93 E6        30.15F FOG
CASTLEBERRY*   NOT AVBL
ATMORE*          N/A     45  45 100 NE9       30.14F
DIXIE*           N/A     45  45 100 CALM      30.12F
ANDALUSIA/OPP  LGT RAIN  50  44  80 NE3       30.15S
ANDALUSIA*       N/A     45  45 100 N5        30.14S
FLORALA APT    LGT RAIN  48  45  89 NE7       30.15S
FLORALA*         N/A     46  46 100 N3        30.12F

$$

FLZ001>006-200600-
WESTERN FLORIDA PANHANDLE

CITY           SKY/WX    TMP DP  RH WIND       PRES   REMARKS
PENSACOLA      LGT RAIN  47  46  97 NE8       30.10F
NAS PENSACOLA  CLOUDY    50  47  89 NE12      30.10F
MILTON         CLOUDY    47  47 100 NE8       30.12S
WHTNG S FIELD  CLOUDY    50  47  89 NE10      30.12F


CITY           SKY/WX    TMP DP  RH WIND       PRES   REMARKS
WALNUT HILL*   NOT AVBL
JAY*             N/A     46  45  93 NE5       30.13F
DUKE FIELD     CLOUDY    48  47  95 NE6       30.13S
CRESTVIEW      LGT RAIN  48  47  96 NE5       30.15S FOG
VALPARAISO     CLOUDY    49  47  94 NE9       30.12S
DESTIN         CLOUDY    50  48  93 NE8       30.12R

$$

MSZ076-079-200600-
INTERIOR SOUTHEAST MISSISSIPPI

CITY           SKY/WX    TMP DP  RH WIND       PRES   REMARKS
LEAKESVILLE*   NOT AVBL
AGRICOLA*      NOT AVBL

$$

MARINE OBSERVATIONS

STATION/POSITION TIME  TEMP    WIND        PRES    WAVE
                       AIR SEA DIR/SP/G            HT/PER
                 (UTC) (F)     (DEG/KT/KT) (MB)    (FT/S)
PASCAGOULA       0500   49      20/  7/ 11 1018.9S
PETIT BOIS ISLND 0500   53      50/ 18/ 22 1018.7F
GRAND BAY        0400   49      40/ 10     1020.0S
KATRINA CUT      0400   51      60/ 21     1019.3F
CEDAR POINT      0400   50      50/ 16     1019.0S
E DAUPHIN ISLAND 0500   51      50/ 16/ 18 1019.0F
MIDDLE BAY LIGHT 0400   50      40/ 15     1019.0R
USCG MOBILE BAY  0500   48 60   40/ 10/ 12 1018.6R
STATE DOCKS      0500   48 60              1019.3F
MEAHER PARK      0400   48      10/  6     1020.3S
WEEKS BAY        0400   48                   N/A
FORT MORGAN      0500   51      70/ 18/ 20 1018.4S
12 S ORANGE BCH  0500   57 66   60/ 17/ 21 1017.8F   3/ 4
PENSACOLA BAY    0500   51 60   50/  5/  9 1019.6F
64 S DAUPHIN ISL 0500   68 75  110/ 19/ 23 1016.5F   4/ 5
67 S FORT MORGAN 0300   64     130/ 21     1017.3F

$$

SELECTED LOCATIONS ACROSS THE REGION

CITY           SKY/WX    TMP DP  RH WIND       PRES   REMARKS
NEW ORLEANS    RAIN      50  48  93 NE16      30.07F FOG
GULFPORT       LGT RAIN  47  45  93 NE12      30.09F
PASCAGOULA AP  LGT RAIN  48  46  93 N8        30.11S
PASCAGOULA*      N/A     48  46  93 N7        30.10S
HATTIESBURG    LGT RAIN  47  45  93 E6        30.13F
LAUREL         CLOUDY    46  43  87 NE5       30.14R
MERIDIAN       CLOUDY    44  42  93 N8        30.16S
JACKSON        CLOUDY    46  43  89 N8        30.17F
MONTGOMERY     LGT RAIN  45  43  93 NE6       30.17S
TROY           RAIN      46  44  93 CALM      30.17R FOG
KINSTON*       NOT AVBL
GENEVA*          N/A     46  46 100 E10       30.16F
ASHFORD*         N/A     45  45 100 N5        30.14S
DOTHAN         LGT RAIN  47  45  93 N5        30.19R FOG
PANAMA CITY    CLOUDY    51  48  89 N6        30.11F

$$




USA.gov is the U.S. government's official web portal to all federal, state and local government web resources and services.